Terug naar catalogus

CARTOSAT 2D

ActiefWetenschapSSO
NORAD 41948·PAYLOAD·🇮🇳 India

Gelanceerd Feb 15, 2017 vanaf Satish Dhawan Space Centre

Loading…

Volgende Passages (komende 24 uur)

TLE

VersSource: Space-Track

Epoch: Sep 14, 2026, 14:24 UTC

1 41948U 17008A   26257.60063259  .00002130  00000-0  10405-3 0  9994
2 41948  97.4014 315.1905 0003357 298.6519  61.4378 15.19319224531156

Volg CARTOSAT 2D in realtime met AllMySat

Download on the App Store